Wind_Speed
39 38 37 36 35 33 31 29 28 27 27 26 24 25 24 24 25 24 21 20 20 20 22 23 23 25 27 27 24 19 14 11 12 11 14 16 20 23 22 21 20 18 12 9 13 13 7 7 10 9 8 3 2 0 1 2 2 2 3 3 3 3 4 5 7 7 4 4 5 4 5 8 4 2 2 1 4 3 1 2 2 3 3 4 5 2 11 25
40 39 38 37 36 35 33 30 29 28 27 26 25 25 25 25 24 24 21 20 20 19 21 22 21 24 26 26 23 19 13 11 12 14 22 25 24 23 25 25 21 16 13 13 15 17 10 7 10 9 6 2 2 1 1 1 2 3 3 2 4 4 5 5 7 6 3 3 5 4 4 6 5 5 3 2 1 2 2 4 3 4 5 2 2 7 18 25
41 40 39 38 36 35 34 31 30 29 28 27 26 26 25 25 24 24 22 20 20 19 19 21 21 21 22 22 21 17 12 9 10 15 27 29 25 24 23 25 25 18 14 15 14 16 16 12 13 9 4 2 0 1 2 0 1 2 4 2 6 5 4 5 6 6 4 3 7 5 4 4 3 3 3 4 3 1 4 6 1 4 7 2 3 12 19 22
41 41 40 38 37 36 34 32 31 30 29 27 27 26 26 25 25 24 22 20 20 19 19 20 22 19 18 17 15 12 5 6 9 16 27 28 25 26 24 24 25 23 20 18 13 11 15 14 12 6 4 2 1 2 2 2 2 2 4 4 5 4 3 4 6 6 4 2 6 5 5 3 3 3 3 6 5 4 7 8 8 9 9 6 5 11 17 19
41 42 41 39 38 36 35 33 32 30 29 28 27 27 27 26 25 25 22 21 19 19 18 20 22 20 18 18 17 13 7 3 5 6 18 23 23 26 26 25 23 23 22 19 13 9 12 13 9 3 3 3 1 2 3 3 4 2 3 4 4 4 2 3 5 6 4 3 4 6 6 5 3 2 4 9 6 6 7 7 9 10 9 10 10 12 14 15
42 42 42 40 38 36 35 34 32 31 29 28 28 27 27 27 26 25 24 21 20 19 17 18 21 22 22 22 23 18 9 5 1 9 3 9 13 21 25 25 22 22 19 14 12 8 10 9 7 4 3 3 5 5 4 3 3 3 3 3 4 4 2 2 2 4 5 6 5 6 4 4 5 2 3 8 9 7 5 4 7 7 7 11 13 14 12 12
42 42 42 39 38 36 35 34 32 31 29 28 28 27 27 27 26 25 24 21 20 19 17 18 19 24 26 24 22 15 8 11 4 10 10 8 2 13 23 23 21 22 19 13 12 7 7 7 7 6 4 4 5 5 3 1 2 3 3 2 4 4 2 1 2 3 6 7 6 4 2 4 7 4 2 5 11 8 4 2 3 5 8 12 12 12 13 15
42 42 42 39 38 36 35 34 32 31 29 28 28 27 27 27 25 24 23 21 20 19 18 18 18 25 32 27 17 8 8 20 22 9 5 10 5 8 20 18 18 23 21 17 14 8 6 9 9 5 5 5 5 5 4 3 3 3 5 2 3 3 2 1 4 4 3 4 3 5 3 3 6 4 2 7 11 7 3 2 4 6 9 10 10 11 12 13
43 42 42 41 38 36 35 34 33 32 30 29 28 27 27 27 24 23 22 21 20 19 18 19 18 23 32 22 9 6 20 35 34 25 12 3 2 5 14 12 15 21 18 17 16 11 6 9 9 6 6 5 5 5 5 4 2 5 6 2 3 3 2 3 4 3 2 1 2 5 3 4 3 1 3 9 8 3 1 5 5 6 7 8 9 10 11 11
43 42 42 41 39 37 36 34 33 33 31 30 29 28 27 27 24 21 22 20 20 20 19 20 19 22 27 16 8 9 28 39 36 32 21 9 4 5 11 11 16 20 13 13 17 15 9 7 7 6 6 2 4 4 4 5 4 5 6 4 3 3 1 3 3 0 2 1 2 4 5 4 1 1 4 6 2 3 5 5 5 6 8 9 8 9 12 13
42 42 41 41 40 37 36 34 33 32 31 31 29 30 28 27 24 20 21 20 20 21 19 21 19 24 26 14 11 11 14 27 39 41 29 14 11 11 13 12 15 20 15 9 15 20 15 6 5 3 3 3 4 3 2 4 3 5 7 4 1 3 1 2 3 2 1 1 3 5 3 4 1 2 5 4 0 4 5 5 5 7 7 8 9 8 10 13
42 42 41 40 39 37 36 34 33 32 31 30 30 30 28 27 23 20 21 19 21 21 20 22 19 25 25 11 14 13 7 20 35 41 36 23 18 16 16 18 17 22 22 11 13 22 19 8 8 4 2 5 6 2 4 2 4 5 6 4 1 5 2 3 2 2 3 2 4 5 2 7 6 5 6 5 3 5 5 6 6 7 7 6 7 6 7 11
43 41 39 39 38 37 35 33 33 32 31 30 30 30 28 27 23 20 20 20 21 22 21 22 19 25 21 8 13 13 7 18 26 28 29 22 19 17 17 19 20 23 25 16 15 23 22 14 10 7 1 4 5 3 2 3 3 3 3 2 2 4 3 5 3 2 4 3 3 3 3 9 8 6 8 7 5 6 5 7 7 7 6 6 6 6 7 10
44 42 39 39 39 37 34 32 32 32 31 30 30 29 28 26 23 20 20 20 21 22 22 21 20 22 16 5 6 10 10 17 23 24 23 21 17 13 15 17 18 23 26 17 11 20 24 20 9 4 1 2 4 2 4 5 2 3 2 0 2 2 4 5 3 5 5 2 2 4 5 9 3 5 8 6 6 8 8 8 8 7 6 6 6 7 8 10
44 42 40 39 39 38 35 32 31 31 31 31 30 30 28 25 22 20 20 21 21 22 22 20 21 15 8 4 4 14 18 17 22 27 26 24 20 13 12 16 14 19 26 18 9 16 25 19 7 3 1 1 4 5 4 3 3 1 2 1 1 3 4 5 2 9 8 2 2 6 5 7 2 5 6 2 6 8 8 9 8 8 7 7 6 7 8 8
42 41 40 39 38 37 35 33 31 31 31 30 30 29 27 22 20 19 19 21 20 22 19 16 22 17 5 4 7 16 20 17 23 27 26 26 22 14 13 13 10 11 18 14 8 14 20 13 4 3 2 1 4 6 4 1 1 1 3 3 2 4 3 3 2 6 8 3 1 4 6 4 1 4 4 1 6 7 7 9 8 8 8 7 6 6 7 7
41 40 40 39 38 37 35 34 32 31 30 29 29 28 25 19 17 17 17 19 18 21 20 13 18 18 6 2 9 13 16 18 24 26 23 25 25 20 14 9 6 10 11 7 5 10 11 6 3 3 2 2 4 6 4 5 5 2 2 2 2 3 3 2 3 5 4 5 5 7 9 8 3 4 4 0 6 7 7 9 9 8 7 7 6 6 7 7
42 42 40 39 39 37 36 34 33 33 30 29 28 25 20 16 15 15 14 17 15 15 18 12 11 11 6 7 8 9 15 18 25 27 23 23 24 22 15 8 7 10 8 4 3 5 4 3 2 2 3 3 6 8 8 6 6 5 4 4 2 3 4 4 4 3 6 6 7 6 10 14 9 7 7 4 6 7 7 8 8 8 8 7 6 7 8 8
43 43 40 39 40 38 36 35 34 33 31 28 27 20 13 10 10 11 12 14 11 7 8 8 9 7 3 11 11 6 15 21 23 22 22 23 22 19 15 11 8 7 6 3 4 5 3 2 3 5 8 9 10 11 9 5 8 10 7 6 6 5 4 4 4 3 6 5 6 8 11 15 12 10 12 10 5 5 7 7 6 7 7 7 6 7 9 9
44 42 40 40 40 38 36 35 33 32 32 28 23 14 8 7 5 5 8 10 11 8 7 8 15 14 3 4 10 10 16 23 20 16 23 25 22 17 10 7 6 3 5 6 6 5 4 5 8 11 12 11 10 10 7 6 9 11 8 6 7 5 5 4 2 3 3 4 6 10 12 15 12 10 13 9 3 5 9 9 9 8 7 7 8 9 10 11
45 42 39 40 39 38 36 35 33 32 32 29 25 13 4 10 9 5 8 8 13 16 14 10 15 18 5 2 13 20 12 14 14 15 26 28 22 15 4 5 7 3 6 7 5 4 5 8 15 15 12 11 10 9 6 6 9 9 7 6 6 6 5 4 3 2 3 3 5 5 8 15 11 10 12 6 4 9 11 11 12 11 10 9 10 12 11 9
43 41 41 41 38 38 37 35 34 32 30 27 24 10 5 20 15 4 9 5 11 20 17 13 12 11 7 5 10 19 10 7 10 11 22 26 19 12 6 7 9 7 7 7 4 5 7 14 19 14 9 11 11 10 8 8 9 8 6 5 6 4 1 3 2 2 2 3 3 2 5 12 10 9 12 10 10 12 12 13 13 12 11 10 11 11 10 8
40 40 42 40 38 39 36 36 34 31 29 25 23 15 16 30 20 4 9 2 5 13 13 15 12 7 12 11 9 13 11 11 11 11 21 23 14 11 10 9 12 9 8 10 8 8 10 15 16 12 9 13 12 11 11 8 7 6 7 6 4 3 2 3 3 2 0 1 1 1 5 10 8 6 10 13 13 12 11 11 12 11 11 13 12 9 9 11
39 39 39 39 38 36 34 35 33 30 31 27 27 29 24 26 22 11 9 2 4 6 12 17 12 6 9 7 10 14 10 11 12 14 24 22 12 10 12 12 13 10 8 12 14 14 11 6 9 13 10 14 13 12 12 8 5 5 6 7 4 3 3 1 0 1 2 3 2 2 6 9 7 7 11 9 7 10 10 9 11 11 12 13 10 8 10 12
41 40 38 39 37 36 35 31 28 29 31 26 27 32 23 20 22 16 6 1 4 3 9 14 7 7 8 4 11 12 4 7 9 14 22 24 20 13 9 8 9 9 10 14 15 14 11 5 13 16 12 14 12 11 12 9 6 3 4 6 6 7 5 3 2 3 3 3 3 1 4 7 4 5 10 6 3 9 7 6 12 13 12 11 9 10 11 11
41 40 38 39 36 37 31 18 23 31 23 19 26 29 24 22 22 15 4 1 5 2 6 12 6 9 12 6 8 6 2 5 6 13 19 23 24 14 8 5 3 9 12 11 9 6 8 8 12 16 13 14 11 9 11 10 7 3 5 7 7 7 6 4 3 1 1 4 3 1 3 7 5 4 8 4 5 11 6 5 12 12 11 10 10 11 10 10
39 38 39 39 37 38 25 11 23 27 14 18 31 29 24 25 22 13 4 1 5 3 6 9 7 12 14 9 11 8 4 4 8 12 16 19 19 11 10 9 4 9 8 5 6 4 8 11 12 17 15 13 13 10 11 12 8 3 5 10 9 7 6 5 5 3 2 2 3 2 2 4 7 6 5 2 5 11 10 10 12 11 11 10 9 11 11 12
39 37 38 37 39 41 27 17 24 21 16 25 31 30 28 28 22 11 3 5 5 5 6 6 4 10 10 10 14 8 3 11 10 10 15 20 17 10 13 15 12 13 9 8 9 4 9 15 16 20 15 11 11 8 12 13 7 3 3 8 8 7 6 5 5 3 1 2 3 2 2 3 8 6 2 2 4 10 12 12 13 11 11 10 10 11 12 12
38 37 38 37 39 40 28 22 25 21 20 24 27 32 32 25 16 6 3 6 3 4 6 6 5 8 8 9 14 9 3 7 6 7 12 13 10 6 9 14 15 14 9 10 9 2 4 11 15 18 13 9 7 8 13 13 4 2 6 9 6 6 5 3 3 3 2 2 6 6 5 3 7 7 2 1 4 10 11 9 10 9 8 9 10 11 10 9
37 37 38 38 35 35 28 21 25 24 21 24 29 35 30 19 9 3 8 5 2 3 5 7 9 11 11 11 12 11 6 4 4 8 8 4 5 4 3 8 10 10 8 10 8 3 4 3 7 10 8 6 7 8 7 10 9 6 8 9 6 5 5 3 2 3 1 5 6 9 9 4 5 7 4 4 5 7 7 6 7 7 6 7 8 8 9 8
37 36 38 39 36 35 26 15 21 27 25 31 37 32 20 9 4 7 8 2 2 4 4 8 12 14 16 15 12 11 9 5 9 12 7 4 7 7 6 7 6 6 7 8 6 4 2 4 4 3 7 9 9 6 4 7 13 8 6 6 4 4 3 3 2 1 4 6 3 8 9 6 6 6 2 5 6 4 6 7 7 8 7 7 6 6 7 7
35 35 38 39 36 36 28 20 26 31 33 41 36 20 9 6 5 7 5 2 3 5 5 11 15 15 17 17 13 13 10 6 12 16 11 8 9 9 10 9 8 7 6 7 6 3 3 7 5 1 6 13 12 6 4 3 9 7 6 7 4 2 1 2 2 2 5 4 2 4 5 3 9 10 6 9 11 8 8 8 8 8 8 8 7 7 6 5
34 35 38 38 36 37 33 27 30 33 39 43 26 8 8 8 8 10 6 1 2 4 7 13 17 18 20 17 13 13 10 7 14 18 15 13 11 11 12 14 15 8 3 9 9 4 4 4 6 5 2 10 15 11 5 5 8 9 9 9 7 5 4 6 5 2 3 2 2 2 2 1 5 8 9 12 14 12 8 7 8 8 9 9 8 6 6 6
33 34 36 37 36 36 33 28 31 38 41 33 14 6 11 8 7 13 12 5 2 1 7 13 18 20 19 17 13 13 10 8 15 17 15 15 11 10 10 12 17 8 3 7 5 5 8 4 8 11 4 10 16 15 13 10 9 9 7 7 7 6 4 5 4 3 2 0 1 1 2 3 5 3 5 8 10 10 8 6 7 7 8 8 7 6 7 8
32 34 34 34 33 33 33 30 35 42 35 18 7 8 12 9 7 11 11 5 2 2 7 12 17 18 16 13 12 13 7 5 17 16 12 15 12 12 13 11 17 11 5 8 4 5 7 4 8 10 3 12 16 11 11 11 7 5 4 5 6 4 4 1 1 3 3 1 1 2 3 3 4 8 9 8 9 9 9 9 7 8 9 5 6 8 8 8
31 32 31 29 30 33 36 35 42 45 28 11 8 10 11 9 6 8 9 6 3 5 10 11 12 13 13 10 9 13 6 1 14 15 10 14 13 14 15 12 19 18 10 9 4 5 7 3 8 7 2 12 13 9 12 11 7 4 4 7 5 3 6 3 1 0 2 2 3 3 5 4 5 11 11 10 14 13 9 8 7 9 8 5 6 8 8 8
28 24 22 23 29 35 37 38 46 41 21 10 12 11 10 9 5 5 9 9 5 7 11 9 9 10 12 10 8 15 11 1 8 12 9 13 12 14 16 11 17 22 16 8 2 3 5 2 4 8 6 7 5 9 12 7 5 6 6 8 4 3 3 3 1 2 2 4 3 2 6 3 2 8 5 3 11 14 9 5 5 8 6 6 8 8 8 8
23 18 13 19 32 36 37 42 43 29 12 9 12 10 10 10 4 2 7 10 7 6 9 8 8 9 11 12 11 15 15 6 6 9 10 10 7 13 18 11 14 22 16 10 3 3 5 4 1 4 6 4 2 7 9 2 1 4 6 8 6 2 2 3 3 2 3 5 3 2 3 2 7 8 4 3 8 8 7 5 5 7 7 7 8 8 8 7
18 10 6 19 35 37 41 45 34 16 7 9 11 10 9 7 3 1 4 9 8 6 9 6 4 7 10 13 15 15 17 13 7 5 8 9 5 12 20 12 13 22 17 10 7 4 4 4 1 2 2 6 2 3 9 6 1 2 3 6 3 2 4 4 3 2 3 4 3 3 2 4 9 6 5 11 12 8 7 7 6 7 7 7 7 7 7 6
12 5 2 22 40 42 46 39 20 9 7 9 11 7 7 7 4 1 2 4 6 4 6 5 4 8 9 12 14 13 14 15 12 6 6 8 7 12 19 14 13 21 19 11 7 5 3 3 3 0 1 6 6 6 12 14 8 5 7 8 5 3 2 2 2 2 2 3 3 3 4 5 5 4 9 14 15 11 9 8 8 8 8 7 7 7 6 6
9 4 2 24 45 46 39 21 8 8 7 9 11 5 5 6 4 2 2 2 2 1 1 3 5 7 9 11 11 10 10 11 12 8 6 8 9 9 16 19 16 19 18 10 6 6 4 4 5 4 4 9 10 7 9 13 12 9 8 9 9 6 4 4 6 2 2 2 3 4 6 6 3 4 8 11 11 10 8 8 9 9 9 10 8 7 6 6
7 4 3 28 51 45 26 9 4 8 5 8 9 4 3 5 4 4 2 3 2 2 3 2 2 4 6 7 9 11 10 9 11 10 6 9 12 8 15 24 22 22 19 13 11 8 4 5 6 5 4 5 4 0 1 6 9 5 3 6 7 5 5 7 9 3 2 2 2 2 5 7 3 5 6 7 8 7 6 6 8 8 8 9 9 7 6 6
5 3 3 31 55 41 17 7 6 5 4 6 7 4 2 4 4 4 3 2 2 1 2 1 1 2 2 4 8 11 11 8 11 13 8 9 13 10 15 23 23 22 18 12 12 7 3 5 6 4 1 2 3 3 5 4 5 3 2 5 7 9 10 8 6 3 2 4 3 2 8 6 2 2 3 5 6 6 6 6 7 8 7 7 9 8 6 7
5 3 0 25 52 38 11 6 9 6 5 7 8 5 2 2 3 4 4 3 2 2 3 2 1 1 2 2 4 10 13 8 9 13 8 7 9 5 12 22 22 20 16 12 13 9 5 8 8 6 3 2 3 2 4 4 3 6 9 10 11 14 11 3 2 3 4 8 8 6 11 7 2 2 1 3 5 7 8 6 6 8 7 7 7 6 6 7
5 3 3 11 31 27 8 3 8 9 9 12 12 8 5 3 2 2 4 3 2 3 4 2 1 1 2 3 3 4 8 4 4 11 8 5 4 1 9 21 21 17 15 13 13 8 4 7 10 9 9 8 9 11 11 11 9 7 11 16 18 18 15 9 5 5 9 10 10 10 13 3 3 1 1 3 5 6 7 6 4 6 7 7 7 6 6 5
5 3 1 2 6 10 5 1 4 7 11 14 11 8 10 7 2 3 4 3 1 3 4 1 2 3 2 3 5 4 2 1 2 7 8 5 2 1 9 19 20 18 16 13 13 7 2 5 12 13 15 15 12 11 14 15 12 10 14 18 19 19 18 14 8 8 13 10 9 17 16 2 3 2 2 5 6 6 7 7 6 5 6 6 6 6 6 5
4 2 4 3 2 4 4 3 4 5 10 13 8 7 12 9 4 2 3 1 2 3 4 2 1 3 4 7 6 3 3 2 2 4 11 9 1 1 8 18 19 19 14 12 13 9 3 7 14 17 20 14 3 6 9 13 15 17 19 20 19 17 16 13 11 15 14 8 10 18 12 6 5 5 5 6 6 6 6 6 6 5 5 6 5 6 6 6
3 1 2 2 2 5 6 7 9 7 9 11 5 7 14 12 7 4 1 1 2 1 3 1 2 3 6 10 8 4 4 4 1 2 8 9 4 3 6 13 17 19 15 9 10 9 4 9 14 17 21 11 4 9 13 13 15 17 18 21 21 19 18 17 19 23 15 9 16 14 8 9 10 5 6 8 7 7 6 5 5 5 5 6 6 7 7 6
2 3 0 2 2 7 9 11 13 12 10 10 4 6 16 16 10 4 1 2 2 1 2 3 4 4 5 6 7 6 7 8 6 4 3 6 8 6 5 8 10 14 16 11 9 7 6 9 11 12 15 10 0 5 12 13 12 13 14 17 17 19 22 23 25 27 18 16 21 10 7 13 13 9 10 9 6 7 4 3 4 5 6 6 6 7 7 6
2 3 3 3 4 8 10 11 13 12 8 7 5 4 10 15 12 6 2 2 4 4 3 5 7 8 7 6 5 7 9 8 7 6 3 6 8 5 5 6 4 8 12 11 8 8 8 10 9 8 9 8 3 5 11 13 14 14 13 13 13 15 20 21 23 21 14 17 23 14 9 15 12 10 11 8 6 6 4 4 6 6 6 7 7 8 7 6
1 2 5 8 7 7 10 9 9 10 6 4 6 5 7 12 12 9 4 2 1 4 4 8 10 7 5 6 6 7 8 6 7 7 5 5 5 3 2 2 1 6 10 7 6 9 9 6 6 6 7 7 6 7 11 12 13 14 13 13 15 16 19 21 23 21 18 21 25 18 15 16 9 8 8 9 10 11 10 8 7 7 8 7 8 9 8 8
2 3 5 8 7 5 8 8 8 9 5 2 6 5 5 10 10 9 7 2 2 0 3 10 12 7 4 7 9 8 8 8 8 6 3 2 3 4 3 1 2 3 9 8 6 7 9 6 5 7 9 10 10 10 10 9 7 8 12 18 22 24 24 24 23 22 23 22 20 17 17 13 5 8 9 11 14 17 16 11 9 9 9 9 9 10 10 9
Wind_Direction
216 215 214 216 217 218 216 213 214 214 214 214 214 218 223 231 235 236 237 237 240 235 229 227 221 220 222 231 244 259 275 272 270 246 226 245 251 247 246 235 226 222 221 230 217 204 208 211 197 170 152 139 16 154 105 18 80 84 97 137 225 186 193 185 180 193 168 198 208 210 183 156 186 203 167 69 57 57 89 277 307 293 276 244 269 306 159 163
214 214 214 214 216 217 215 213 213 213 214 214 215 218 221 229 234 236 237 236 238 237 231 230 225 218 218 225 233 251 269 267 266 252 246 262 265 250 242 236 225 213 210 225 216 188 180 207 187 149 126 121 355 19 112 4 82 105 118 159 230 194 203 193 174 186 176 185 175 180 180 166 188 172 148 178 243 43 165 252 335 307 275 294 262 161 159 163
213 213 213 213 213 214 214 213 213 213 214 214 216 217 220 226 232 235 236 235 237 237 232 230 230 219 212 217 226 241 255 274 274 258 257 261 260 246 238 236 227 212 197 209 224 202 196 198 171 143 91 95 72 77 107 119 120 135 129 185 240 212 224 212 174 191 219 184 153 171 174 168 213 165 157 175 171 191 207 221 219 247 242 226 174 157 159 164
214 213 213 212 211 212 213 212 212 213 213 214 215 215 220 224 230 235 234 233 236 237 232 225 224 219 205 202 209 213 222 300 274 256 260 257 255 250 238 234 225 214 203 207 245 244 208 183 157 135 93 115 341 99 149 208 171 146 149 193 229 197 216 212 183 194 215 183 159 157 133 168 223 163 160 146 141 248 242 225 204 210 209 185 181 166 164 168
215 213 212 212 211 211 212 212 212 213 212 214 215 215 219 223 228 233 234 232 232 236 234 223 217 213 201 192 188 168 115 321 263 251 259 249 251 251 236 231 221 209 201 207 255 262 197 170 144 98 78 132 101 112 204 219 146 148 194 190 187 165 198 219 182 175 152 110 139 138 145 179 168 139 163 152 170 232 228 223 213 211 193 171 173 170 168 174
216 214 212 211 211 210 211 211 211 212 211 213 214 215 217 223 227 231 234 231 230 234 233 226 214 206 202 190 177 162 148 224 22 43 318 221 232 238 226 223 214 203 196 207 263 255 183 166 155 151 92 136 165 171 212 218 137 168 216 190 177 169 185 229 168 168 131 114 154 163 176 150 129 220 182 167 207 219 203 215 218 219 189 163 160 162 170 181
215 214 211 210 210 209 209 210 211 211 211 212 214 216 217 223 226 229 234 230 230 231 232 230 214 207 200 175 161 163 185 221 204 44 40 74 139 224 215 215 207 193 183 198 251 249 176 170 180 161 126 152 182 192 190 135 82 161 205 211 180 165 180 207 115 150 137 143 186 183 138 138 165 207 132 197 233 227 217 247 208 186 157 153 155 168 182 186
214 214 211 208 209 208 208 209 210 210 210 212 215 216 217 222 226 227 231 230 229 228 231 232 219 204 187 165 156 166 217 224 216 219 16 46 55 201 201 208 203 186 177 191 223 239 185 175 185 158 152 191 185 179 158 96 38 185 204 213 157 141 163 123 82 90 126 155 168 131 142 216 196 179 135 233 248 250 247 88 116 139 143 159 170 182 187 189
213 213 210 207 207 207 207 208 210 211 210 212 214 216 217 222 223 224 229 229 227 225 228 229 220 195 177 165 148 182 227 223 216 224 247 306 12 195 195 201 192 181 179 197 220 249 224 181 191 172 163 194 169 169 166 151 236 207 186 164 139 131 134 103 90 69 63 174 135 130 203 275 231 185 251 248 247 246 126 103 122 136 155 180 183 188 188 192
212 211 209 206 205 205 206 206 209 211 210 212 213 216 218 222 222 221 225 227 224 223 224 226 219 192 180 172 146 208 232 220 214 223 227 229 246 190 188 201 191 183 183 202 222 248 243 190 191 163 134 150 156 154 176 179 204 188 156 129 116 115 120 105 126 171 33 240 174 154 226 271 309 245 240 262 255 128 109 117 152 157 181 194 192 197 194 197
210 209 207 205 203 203 204 205 208 209 211 212 214 217 218 221 221 218 221 223 222 221 222 226 217 191 184 175 178 213 220 206 214 220 216 216 221 199 196 214 206 192 188 198 220 235 249 229 169 143 130 168 147 114 227 202 142 145 144 130 53 45 41 103 134 199 147 205 167 144 242 278 336 232 227 252 231 136 144 158 181 184 200 204 199 202 197 206
208 208 206 203 202 202 202 204 206 207 210 211 214 217 218 221 219 215 218 219 220 222 221 226 218 193 188 185 207 211 168 195 210 213 216 219 220 227 232 234 225 205 195 198 227 233 249 241 166 185 253 161 135 131 222 189 99 123 133 144 352 25 344 227 171 189 168 180 182 140 310 270 223 208 229 235 164 134 162 187 207 207 211 210 207 210 206 213
208 208 206 202 202 202 201 202 204 207 208 210 214 217 219 222 219 214 215 216 218 220 221 225 217 202 204 211 212 207 178 200 198 195 204 205 209 222 224 222 217 204 194 196 229 234 243 248 199 190 209 137 150 188 148 75 76 120 107 131 116 32 301 232 166 129 157 177 194 152 270 253 227 224 227 217 161 138 179 215 222 219 221 216 209 214 217 215
207 207 204 202 202 201 200 201 203 205 207 210 213 216 220 222 219 213 211 215 216 218 222 222 210 206 219 229 199 204 188 190 188 182 184 177 176 182 187 197 197 194 189 187 228 230 229 247 247 166 113 143 155 137 70 37 30 115 99 33 130 149 268 260 177 143 160 208 135 126 251 251 223 237 235 217 177 171 205 226 224 222 224 220 212 214 221 218
206 204 201 200 201 202 201 199 200 202 206 210 212 217 221 221 220 211 210 216 215 217 220 216 207 204 234 265 202 194 182 173 178 183 190 182 164 151 167 178 180 189 189 189 222 215 207 220 233 152 202 257 131 105 71 27 17 104 183 211 125 194 265 301 191 166 177 234 92 130 243 266 235 243 263 242 183 188 217 230 229 228 225 223 220 217 224 227
203 200 198 198 199 201 200 199 199 200 204 208 212 218 220 221 217 209 211 214 215 217 210 206 207 205 251 268 176 173 180 187 185 185 194 192 182 172 154 152 157 171 179 185 201 198 192 192 188 167 160 185 144 114 97 101 5 249 206 166 153 197 236 312 279 212 188 146 172 198 238 275 282 251 294 24 169 175 221 242 243 239 239 232 225 226 230 235
199 195 195 196 196 198 198 199 200 200 203 206 210 217 220 221 216 210 213 214 219 213 203 206 202 203 249 227 156 166 186 193 181 175 183 190 194 186 152 123 125 136 147 150 160 186 185 171 186 193 126 131 154 131 152 202 197 192 184 163 202 202 193 221 274 263 185 165 210 218 240 245 221 249 293 20 163 163 208 242 251 245 246 239 226 234 236 235
196 194 193 195 196 197 197 197 198 200 202 203 208 215 218 220 212 209 209 209 214 202 203 221 198 194 234 208 191 188 190 179 166 166 168 174 181 176 154 118 107 119 124 115 139 193 196 166 174 167 152 171 170 173 193 201 168 159 166 170 224 228 200 200 233 223 162 194 220 206 244 249 245 262 270 241 168 166 205 226 244 245 243 243 232 230 234 235
194 195 192 193 194 194 195 196 197 199 199 202 207 207 206 205 198 207 205 196 196 180 195 208 193 209 232 205 217 192 172 163 158 159 151 154 157 147 131 116 114 119 128 152 177 191 188 129 146 179 195 194 186 191 192 152 142 158 171 185 207 225 229 210 237 242 166 172 220 212 236 248 246 250 253 247 189 183 231 235 243 251 250 248 239 233 234 233
192 192 190 192 193 192 194 194 196 197 197 199 195 181 176 176 162 208 210 199 205 213 216 184 190 218 262 181 181 140 151 158 152 150 148 149 138 123 111 105 108 115 155 177 174 175 180 176 198 205 199 188 185 189 172 129 139 153 165 194 210 217 248 228 209 260 171 154 227 223 238 250 245 245 251 251 195 211 245 246 243 244 243 242 239 238 235 232
188 188 189 191 191 192 193 193 194 196 197 194 183 173 168 174 169 188 188 204 219 217 228 212 198 212 224 51 155 143 141 160 153 150 154 152 136 129 137 123 133 183 193 179 155 152 176 207 216 209 191 172 174 178 158 140 144 152 169 196 215 216 241 241 204 231 151 161 251 241 252 259 253 255 262 257 221 234 235 238 242 239 236 237 236 239 238 240
184 186 189 189 189 192 192 191 193 195 195 189 182 185 211 190 185 169 166 198 229 212 224 228 215 214 208 251 189 156 143 151 147 151 156 151 145 156 170 148 165 198 193 174 157 155 185 223 219 199 174 160 167 176 167 165 162 160 170 187 216 212 263 297 292 326 139 180 260 299 268 265 255 245 257 252 238 241 232 231 239 235 235 236 233 236 239 246
181 184 188 188 189 190 190 190 191 192 191 185 183 196 212 200 195 167 162 197 263 204 214 226 224 212 197 220 215 174 169 164 151 159 162 153 148 162 159 165 184 190 185 180 182 178 199 228 209 176 163 163 167 174 166 165 171 170 170 179 208 174 146 269 299 348 315 191 255 326 294 279 264 242 251 246 238 246 240 232 238 234 234 237 234 230 228 234
182 182 185 186 187 187 187 188 188 190 190 188 193 203 206 198 198 195 171 207 291 189 198 216 226 223 204 196 184 187 191 175 160 163 167 156 139 153 163 174 184 186 188 186 193 201 216 239 169 160 172 167 168 175 171 171 174 176 178 174 173 157 158 213 294 14 346 351 7 347 312 283 257 240 249 248 244 254 244 230 241 240 235 240 242 232 224 229
183 182 182 182 184 185 184 184 188 190 190 192 201 206 201 185 194 200 164 185 260 225 192 198 219 237 220 180 176 184 193 191 172 165 170 160 146 152 173 177 178 187 188 188 202 213 226 221 153 164 177 166 171 182 181 180 169 182 202 169 150 156 149 104 90 50 26 328 322 352 282 276 276 246 251 265 287 263 242 218 240 243 237 234 236 235 228 230
181 181 180 180 181 180 177 182 192 189 188 200 203 200 193 183 191 194 137 44 240 247 168 167 170 202 199 188 165 148 207 220 154 155 171 163 154 153 165 161 169 195 187 188 211 214 219 217 165 164 169 162 175 188 183 176 163 202 203 153 127 138 140 125 147 120 135 259 301 65 220 266 298 253 244 254 263 264 259 235 243 244 243 230 224 234 229 227
181 181 180 180 180 176 174 179 183 181 184 205 200 190 182 182 185 176 131 248 223 165 148 162 164 176 179 172 154 148 190 162 120 160 178 164 155 144 157 160 155 192 178 170 217 197 182 199 173 164 165 168 185 188 181 170 160 216 187 143 126 132 155 159 167 196 221 262 313 17 159 263 281 260 250 255 258 270 268 253 249 243 242 236 225 232 227 223
182 181 179 181 181 180 178 163 165 182 201 196 190 180 174 175 169 145 141 221 194 129 136 159 161 161 161 156 164 183 178 138 140 178 178 169 160 142 168 176 170 182 173 172 209 210 175 188 176 167 169 182 188 169 165 160 152 228 158 130 131 136 156 158 162 191 19 347 271 249 149 236 272 270 301 355 254 262 259 250 251 246 240 237 230 232 230 228
183 181 182 181 182 184 181 168 174 192 194 179 173 170 166 162 147 112 240 223 151 116 139 147 151 149 142 150 173 202 200 153 164 159 161 175 172 152 175 173 166 174 179 190 211 261 201 195 176 167 171 183 162 132 155 155 141 188 116 92 87 87 85 100 148 154 73 286 230 200 175 213 273 260 201 86 243 249 253 250 252 251 243 238 236 237 239 239
183 183 184 181 180 182 179 181 190 187 174 166 163 158 150 142 135 176 219 216 110 147 143 146 159 150 147 159 179 194 188 165 139 133 146 174 160 142 115 128 145 162 185 207 213 261 288 225 173 167 163 160 122 110 142 139 131 135 101 81 68 59 50 51 78 100 129 255 219 185 179 174 279 267 193 192 234 236 239 246 257 263 261 252 246 242 237 234
183 184 183 182 182 180 177 187 189 177 168 162 155 146 137 136 179 206 202 180 94 158 144 148 157 151 157 167 178 185 180 161 142 145 156 150 144 146 122 115 134 153 182 204 211 254 263 156 172 178 143 129 109 85 45 119 138 126 98 111 96 59 32 25 18 69 211 246 222 175 170 161 233 255 200 231 262 239 217 229 248 259 267 264 257 253 243 234
184 184 183 185 184 180 185 191 179 172 165 157 150 140 142 166 202 208 196 95 145 184 164 152 157 157 162 173 183 178 174 163 153 157 165 162 162 166 161 160 157 154 185 192 186 235 217 165 159 119 142 140 128 104 32 113 149 128 122 146 137 121 181 201 200 212 220 255 352 162 157 171 237 252 258 262 268 249 221 223 240 249 259 266 260 255 251 241
187 186 186 187 184 184 192 188 173 167 159 153 147 142 174 191 200 197 190 140 192 190 157 157 161 159 161 175 188 177 176 177 161 162 167 166 172 178 174 171 166 161 174 174 172 172 193 194 145 116 159 161 148 149 163 169 170 164 159 167 169 165 190 205 200 223 235 264 15 165 184 280 261 268 257 250 259 260 245 224 230 242 251 258 259 254 254 247
189 189 188 188 188 187 189 182 171 163 154 150 147 161 187 205 192 185 192 205 263 178 156 163 159 158 168 181 183 172 177 181 166 164 166 167 173 179 177 176 177 172 93 153 186 175 173 209 168 155 177 182 171 175 175 158 167 183 168 168 185 180 191 204 194 201 209 349 17 198 225 198 187 250 253 233 249 266 272 248 235 250 252 257 272 270 260 253
189 190 190 189 190 188 183 180 172 162 154 151 161 177 195 205 180 185 193 190 247 192 157 160 156 158 176 185 180 179 184 174 166 166 171 173 175 177 175 176 181 179 130 156 189 191 190 235 177 163 161 179 179 177 156 136 154 197 141 158 202 188 150 139 170 177 151 114 230 210 241 216 213 272 276 258 256 253 253 259 261 264 262 267 278 271 263 259
187 189 190 188 189 187 182 177 168 162 158 160 178 186 201 204 184 185 178 159 204 176 146 154 162 163 176 179 178 186 198 174 167 167 174 180 181 181 178 176 180 181 175 168 155 176 198 218 170 160 132 181 175 149 156 159 157 168 164 181 195 125 114 109 215 61 91 202 221 199 249 295 310 283 269 250 257 257 245 249 259 262 268 279 266 258 259 257
186 186 187 189 188 185 182 172 162 161 163 174 190 193 195 201 198 174 166 162 186 172 147 156 173 170 173 172 180 187 183 146 178 176 171 179 184 179 178 182 183 185 183 170 139 183 171 98 175 171 154 183 168 132 163 183 134 144 190 181 132 70 88 101 157 25 56 234 259 218 238 272 265 268 288 222 245 258 261 262 272 270 263 258 255 252 255 255
183 182 185 192 186 182 178 170 163 163 168 180 196 200 189 196 196 158 174 169 168 175 165 165 176 178 174 171 181 187 178 170 207 191 168 176 187 172 174 178 186 191 187 163 168 219 150 92 289 199 154 150 50 124 161 234 77 150 186 164 136 161 201 148 172 189 193 228 276 294 264 237 210 233 287 254 230 243 271 296 305 284 256 244 256 264 269 272
175 177 198 189 182 178 174 168 165 169 180 182 195 199 189 192 190 232 208 172 157 175 182 175 176 180 179 178 179 180 180 183 193 191 176 181 184 173 175 175 181 191 189 172 173 192 168 138 125 289 146 131 97 168 183 200 245 57 127 155 163 193 185 176 174 163 200 220 255 311 309 239 224 205 197 239 247 241 261 286 292 275 260 250 250 257 270 274
168 172 197 175 175 174 169 166 168 177 183 188 190 183 180 192 195 249 294 166 155 177 192 194 188 177 180 187 183 174 182 187 181 189 206 184 164 174 180 178 177 184 188 190 177 157 161 149 135 16 95 142 171 204 193 188 179 150 159 176 197 188 137 174 185 129 154 191 196 253 268 251 243 192 182 223 249 250 247 257 257 256 260 258 248 242 253 264
164 179 205 169 169 168 164 165 185 180 178 193 186 170 179 183 151 120 31 49 119 108 143 169 179 176 177 184 183 170 174 186 184 190 210 188 174 177 182 180 173 172 181 193 186 170 172 158 151 151 160 180 193 204 198 191 182 175 180 183 187 181 136 182 216 182 127 192 176 199 257 270 243 206 201 215 239 252 245 237 245 252 253 259 260 247 244 255
167 185 192 168 165 163 162 175 190 172 185 191 172 135 151 151 117 139 129 47 80 79 71 107 144 160 169 176 175 167 165 177 186 193 208 199 196 195 186 182 172 166 175 185 187 180 129 118 138 141 177 197 195 39 51 178 174 163 179 179 175 173 161 194 218 198 137 220 153 143 270 278 229 197 217 226 239 257 254 233 244 254 251 258 272 275 265 258
177 169 168 168 165 162 168 186 162 167 193 162 136 94 97 131 125 142 131 97 140 100 85 120 169 145 166 178 167 165 169 173 185 195 203 202 208 207 186 180 170 167 176 181 182 178 93 127 141 118 128 26 42 33 32 75 140 141 199 183 170 190 196 202 207 153 154 216 177 232 266 264 239 205 236 255 265 272 265 240 242 261 268 265 270 279 277 266
158 121 14 173 167 166 179 189 164 171 171 138 130 116 64 71 122 140 144 147 154 131 128 145 201 181 165 165 149 163 173 175 188 199 201 204 213 200 174 181 174 171 184 182 175 183 179 169 158 137 142 88 78 75 18 10 190 194 203 189 187 198 190 164 124 127 215 210 170 216 251 243 269 307 247 279 286 277 267 245 226 246 265 267 269 276 273 270
143 114 347 173 168 169 182 193 168 166 158 150 148 144 125 88 67 101 125 130 129 137 132 137 181 120 112 113 78 133 169 163 179 196 204 213 221 133 165 181 180 180 192 182 168 174 173 168 166 158 162 167 178 191 198 200 196 199 198 189 192 193 177 176 193 184 220 208 166 206 239 248 36 59 102 326 305 291 284 280 256 246 256 268 271 273 273 273
157 152 161 126 164 172 157 79 168 167 159 156 153 151 146 134 59 18 73 101 127 101 84 61 166 105 81 128 97 87 142 36 72 183 195 192 207 243 174 176 185 193 185 165 160 153 95 184 188 187 189 187 188 197 192 181 175 186 194 193 197 194 186 192 198 201 218 209 193 221 228 179 82 202 287 310 295 283 283 293 298 278 264 266 261 264 271 266
161 162 174 138 83 153 129 112 166 174 163 159 156 157 150 138 121 65 34 59 177 123 84 24 226 159 163 157 129 108 164 146 53 178 190 185 135 351 172 171 186 191 172 159 170 159 128 198 197 205 212 206 120 77 129 154 179 191 190 193 196 193 192 198 209 224 222 206 231 237 220 201 236 245 263 267 260 267 267 266 278 281 273 272 274 281 282 277
176 146 191 150 116 149 147 151 160 157 153 152 147 154 153 145 135 133 57 71 138 133 104 74 281 218 173 156 143 135 150 142 93 191 186 179 140 91 164 179 187 180 165 174 188 170 177 207 200 207 216 220 44 85 133 161 194 198 192 194 192 185 190 199 217 229 219 206 239 236 176 202 236 239 246 246 229 234 239 238 258 285 288 286 292 290 287 294
157 125 159 356 90 140 139 143 147 142 142 142 131 154 155 149 139 130 101 109 133 220 124 144 203 198 171 157 138 143 170 173 181 205 192 165 156 143 158 184 191 177 172 186 193 176 193 209 201 207 215 220 357 122 152 169 195 203 202 200 190 187 195 201 216 224 216 219 238 226 168 215 220 195 221 233 203 205 228 260 273 283 284 290 302 292 286 293
158 153 153 84 81 118 125 135 143 139 137 136 134 155 154 147 141 128 101 123 163 188 158 147 173 174 173 175 143 152 182 176 157 169 176 159 160 162 166 174 189 186 185 190 186 184 205 206 186 183 208 217 208 170 172 175 189 201 202 196 186 193 206 213 222 224 216 230 240 233 226 240 221 184 206 220 202 202 212 240 257 265 268 280 292 286 282 281
169 140 129 114 109 121 127 134 140 140 143 144 146 155 150 148 145 130 103 32 151 178 168 147 153 157 160 176 179 176 176 154 133 139 143 143 140 118 132 172 183 189 194 193 184 188 199 197 155 154 200 214 190 186 185 177 188 201 195 183 182 193 207 215 220 215 203 219 233 230 234 244 219 165 194 222 231 235 228 218 228 243 246 252 265 269 271 271
122 93 93 104 105 114 129 131 137 144 152 157 147 142 134 146 148 131 115 60 360 173 165 149 148 142 146 183 205 198 171 158 153 147 130 116 112 111 132 288 332 199 195 191 190 195 188 180 157 165 200 215 193 180 175 160 174 206 200 189 190 199 207 212 219 218 209 213 221 221 231 238 170 139 188 214 227 239 242 228 215 226 234 234 240 249 259 266
Height
735 738 740 743 745 748 750 753 755 757 759 760 763 764 766 768 769 771 773 774 775 776 778 780 780 783 787 791 793 794 796 796 796 797 795 792 794 796 796 797 799 799 800 802 804 804 806 806 805 804 805 807 810 810 810 811 812 814 823 833 834 836 834 829 830 830 826 822 823 826 826 825 827 829 828 829 831 832 834 833 832 832 831 830 829 829 830 831
731 734 737 739 742 744 747 750 752 754 756 758 760 762 764 766 768 770 771 773 774 775 777 778 780 783 786 789 791 794 795 795 795 793 790 791 794 795 796 796 798 799 800 804 804 802 804 805 803 803 805 809 812 811 811 812 813 817 827 833 832 831 827 822 822 823 823 820 821 824 826 826 825 827 827 829 833 834 835 833 833 832 830 830 829 830 831 831
728 731 734 736 739 741 744 747 749 751 753 756 758 760 762 763 766 768 770 772 773 774 776 777 780 782 785 786 790 794 796 797 794 788 786 789 791 793 795 796 798 800 801 804 804 802 802 802 802 803 806 810 812 812 812 813 814 819 826 831 828 824 822 822 821 820 821 820 820 824 826 826 825 826 826 828 833 836 834 830 831 831 829 829 830 830 831 832
724 727 730 733 735 738 741 743 746 748 750 753 755 758 760 761 764 765 768 771 772 774 775 777 779 781 783 784 790 793 796 800 791 782 784 787 788 790 793 794 797 799 800 803 804 802 801 802 802 803 806 811 813 812 813 813 815 819 822 824 822 821 820 818 819 819 820 822 821 822 826 827 825 826 826 828 833 836 831 825 825 825 825 828 830 830 830 832
721 724 727 730 732 735 738 740 743 745 748 750 753 755 757 760 761 763 767 769 771 772 774 776 778 781 781 782 789 790 798 805 787 777 781 782 784 788 790 792 795 796 798 803 804 801 801 801 802 804 806 811 814 813 813 812 812 818 819 818 818 821 819 816 819 819 820 824 823 823 824 824 824 825 825 826 829 828 823 821 821 820 821 824 827 828 830 831
718 720 723 727 729 732 735 738 740 743 745 747 750 753 755 758 759 762 764 767 770 771 773 775 776 780 779 781 787 788 797 799 782 776 779 777 781 785 787 791 793 795 798 802 804 801 801 801 802 805 807 810 814 812 813 812 811 816 818 816 818 818 817 817 819 819 820 821 822 822 821 822 824 824 825 826 821 818 818 819 819 819 821 822 824 827 829 830
714 717 720 724 727 730 732 735 738 740 743 745 748 750 753 755 758 760 762 766 768 770 772 773 775 777 778 781 784 788 791 785 777 779 778 777 782 784 786 789 790 793 797 801 803 802 800 801 802 804 807 811 813 811 812 812 811 815 817 815 816 816 816 818 819 820 820 819 820 822 821 822 823 823 827 824 816 815 818 818 818 819 821 823 824 826 826 827
711 714 717 720 724 727 730 733 735 738 740 743 745 748 751 753 756 758 761 764 766 769 770 772 774 773 776 777 779 789 784 772 776 780 779 780 783 785 788 790 790 791 794 799 801 801 800 800 802 803 807 809 810 811 811 813 815 815 816 815 815 815 816 818 820 821 820 819 821 822 821 822 823 824 826 819 813 815 817 818 818 819 821 823 824 824 825 826
707 711 714 717 720 724 727 730 733 735 738 740 743 745 749 751 755 757 759 762 764 768 769 770 772 772 776 774 779 785 766 760 776 780 781 783 784 787 789 790 791 793 795 798 800 801 800 798 799 800 804 807 808 811 811 814 817 814 814 815 814 815 816 818 819 819 820 820 821 820 820 822 824 826 822 814 813 816 817 818 819 820 821 822 823 823 824 825
703 707 710 713 717 720 723 727 730 733 735 738 740 743 746 749 753 756 758 761 763 765 767 769 771 773 775 773 781 777 750 756 777 778 782 785 784 787 789 791 791 793 796 797 799 801 798 795 796 796 800 806 808 812 812 812 813 811 813 814 814 815 815 817 817 818 820 819 820 820 820 821 824 826 819 812 813 817 817 818 819 820 820 821 821 822 822 823
698 703 706 709 713 717 720 724 727 730 733 735 738 740 744 747 751 754 757 759 761 764 766 768 770 772 773 773 778 766 747 758 771 774 781 784 785 786 787 791 792 793 794 796 799 799 797 796 796 797 800 804 808 813 813 810 809 809 812 815 817 816 816 818 817 818 819 819 820 819 820 821 825 825 817 812 814 816 816 817 819 819 819 820 820 821 821 822
695 700 703 706 710 713 717 722 725 728 731 733 736 738 742 745 749 753 756 758 760 762 764 766 769 769 771 772 767 757 752 759 764 771 777 781 786 786 785 789 790 791 792 796 798 797 798 798 797 800 801 802 809 815 811 809 810 810 812 817 820 819 819 818 817 819 818 818 819 819 823 822 821 821 814 811 813 815 816 816 818 818 818 819 820 820 820 820
692 697 700 704 708 711 715 719 722 726 729 732 734 736 740 743 747 752 754 757 758 760 763 765 767 768 770 767 758 755 757 759 763 769 773 778 785 786 786 786 787 789 791 795 797 797 799 799 799 800 801 803 809 811 807 808 811 813 815 818 823 826 824 818 817 820 819 819 818 821 829 820 813 814 810 810 812 814 815 814 816 817 818 819 819 820 819 819
687 693 697 702 706 709 713 717 720 724 727 730 732 734 738 741 746 750 753 756 757 759 761 764 766 767 766 759 754 756 758 760 764 766 770 776 781 785 786 786 788 790 791 795 798 800 800 801 803 802 802 804 805 806 809 813 814 816 820 822 827 832 827 818 818 820 819 822 817 822 831 819 809 810 807 809 811 811 812 812 813 815 816 817 817 818 817 816
683 689 694 699 703 706 711 715 718 722 725 728 730 732 736 740 744 748 753 755 757 759 761 764 765 765 764 757 752 754 757 760 761 762 766 772 776 782 784 785 789 790 792 795 797 800 801 804 806 805 806 804 802 808 816 820 818 819 824 829 832 832 826 818 818 818 817 821 818 823 830 818 810 808 805 809 811 811 811 810 811 812 814 815 815 816 815 814
679 685 691 696 700 704 708 712 716 720 723 726 729 731 735 740 743 747 751 754 757 759 761 763 761 763 762 756 752 753 755 756 756 759 763 767 772 777 781 784 787 789 792 794 796 799 799 802 806 806 806 806 804 810 819 825 826 824 825 831 833 831 830 823 820 818 815 818 820 823 824 815 811 808 807 810 810 811 812 810 811 812 812 814 814 814 814 814
676 682 688 693 697 701 706 710 714 718 721 724 727 730 734 738 742 747 750 753 756 758 760 760 759 762 759 752 752 751 750 750 752 756 760 765 770 774 778 782 785 788 790 793 796 798 798 800 805 805 804 806 806 809 820 826 828 829 827 829 830 829 832 829 822 820 818 819 821 823 821 812 809 808 807 808 808 810 811 810 810 810 811 811 812 813 813 812
672 679 685 689 694 699 703 708 713 716 720 723 726 730 735 738 742 746 749 752 755 758 761 759 759 760 753 748 749 747 745 748 751 753 758 764 768 771 775 780 784 787 791 796 796 798 799 799 804 806 806 808 806 805 815 817 819 828 830 829 829 826 830 830 821 819 821 821 822 826 824 815 810 810 807 807 808 807 806 807 808 808 808 808 810 811 810 810
669 676 681 686 691 696 701 706 710 715 718 722 726 731 735 738 742 744 747 750 751 753 754 752 752 747 739 739 742 742 743 746 750 754 758 762 766 770 774 779 783 787 795 799 798 798 798 800 806 807 804 804 801 799 805 806 808 819 824 824 825 825 829 828 821 819 821 823 826 826 823 815 812 812 807 805 808 807 805 805 806 807 807 806 807 807 806 806
665 672 678 683 688 693 698 703 708 713 717 721 725 730 734 738 744 746 746 746 744 743 741 740 741 736 733 735 737 741 744 744 749 753 756 759 764 770 775 780 785 790 795 798 799 796 796 803 804 797 793 795 798 797 799 801 803 813 820 822 822 824 826 824 821 820 818 823 825 822 820 814 811 811 806 804 808 808 806 804 804 805 805 804 803 802 801 800
661 669 675 681 686 691 696 701 707 711 715 719 722 726 728 730 736 738 739 741 739 737 736 734 734 734 735 736 734 737 743 745 747 750 753 756 763 773 778 782 789 795 794 795 797 794 798 802 793 785 786 791 796 797 798 800 803 811 818 822 824 825 824 821 821 820 819 822 822 820 821 816 812 811 806 806 809 806 802 801 800 800 800 801 799 797 796 796
659 666 672 678 684 689 694 699 704 710 715 717 720 722 721 720 722 723 728 735 733 731 734 734 734 736 736 737 736 735 739 745 749 751 753 755 762 773 779 782 789 793 794 795 796 799 803 794 780 781 785 789 795 796 798 801 804 810 816 822 826 825 826 823 822 821 821 821 821 821 821 813 810 810 805 805 805 799 796 795 794 794 795 795 794 793 794 794
657 663 670 676 681 687 692 697 702 708 713 714 715 717 715 716 720 721 725 732 730 729 734 734 734 736 736 736 737 737 738 740 745 750 750 751 759 769 777 783 785 789 793 795 795 799 797 782 773 782 785 788 796 797 799 803 806 810 814 822 825 824 826 826 823 824 823 823 823 824 822 811 805 806 802 798 796 792 791 791 790 790 790 788 787 789 790 790
655 661 668 673 680 686 691 696 701 706 709 711 711 711 712 717 723 724 726 730 728 725 728 731 733 733 732 734 735 737 736 733 736 742 743 746 756 767 774 777 781 787 791 791 791 791 787 776 774 784 787 789 797 799 800 804 810 813 813 818 821 821 824 824 824 824 824 826 824 825 824 809 797 801 795 789 791 789 787 789 788 787 785 783 784 785 785 784
653 660 666 672 679 683 690 696 699 702 705 708 708 709 715 720 723 725 728 732 730 724 725 729 733 731 730 734 733 733 735 732 731 735 737 738 748 762 770 771 776 786 788 788 790 789 784 777 774 782 787 790 795 799 799 801 809 815 813 813 816 818 821 823 824 825 826 828 825 828 830 810 793 796 792 787 790 786 784 787 785 781 780 781 783 781 780 780
653 659 664 670 676 681 690 693 694 700 704 705 704 708 715 719 724 727 730 738 734 725 726 729 730 728 726 731 732 733 738 735 731 735 737 737 740 752 767 772 774 780 783 785 789 785 781 777 775 781 787 790 796 800 796 798 809 816 811 809 813 816 820 823 824 825 829 830 829 833 833 816 796 789 784 784 787 782 781 785 780 777 775 776 778 776 776 777
651 657 661 668 673 679 684 685 690 698 699 698 700 707 715 719 725 726 732 745 735 718 721 725 723 719 719 725 729 733 736 732 733 738 737 738 740 746 762 771 774 778 778 783 789 780 775 779 779 779 784 790 794 795 793 794 806 814 807 805 812 816 819 823 823 825 829 831 832 832 831 826 808 788 782 784 783 779 778 777 774 773 772 771 773 771 772 772
649 655 660 665 670 674 677 681 688 691 689 692 698 707 713 717 724 729 736 742 722 704 710 717 717 716 717 723 727 728 727 724 730 737 734 736 740 744 756 764 768 774 773 780 787 776 770 777 777 775 782 788 785 785 788 791 803 812 808 806 811 815 819 822 825 829 833 833 831 828 829 830 812 789 788 791 783 776 772 769 767 767 768 768 769 768 767 767
647 653 658 663 669 673 678 681 684 685 688 694 701 707 712 718 725 732 737 725 699 691 699 707 714 716 719 724 726 726 725 723 727 732 735 738 738 741 750 755 762 772 774 777 782 776 772 771 769 770 779 783 782 783 785 789 802 811 809 809 814 819 822 827 829 830 837 836 829 825 826 827 808 782 785 792 783 771 765 764 763 761 764 765 764 765 764 765
646 651 655 662 667 672 678 681 682 685 691 696 702 707 712 720 726 729 729 710 690 690 696 702 709 712 717 722 723 726 728 727 727 731 738 741 739 742 748 752 761 772 778 779 780 780 775 769 766 767 772 778 782 786 788 791 800 805 807 812 819 823 825 831 831 830 838 834 819 816 818 824 812 781 775 780 772 764 761 760 760 758 760 761 761 763 763 763
644 649 654 659 662 667 673 676 680 684 690 694 701 708 714 722 726 723 713 696 688 692 695 701 706 706 711 716 717 722 726 726 727 731 737 741 743 746 750 756 764 774 781 783 782 782 778 774 771 767 766 773 781 789 795 796 797 799 805 813 819 828 831 834 835 836 839 827 813 814 816 823 814 781 768 771 765 765 764 759 756 755 756 758 760 761 761 762
643 647 652 656 660 665 667 670 676 682 687 692 698 707 714 719 721 712 699 691 691 691 691 696 701 702 709 712 713 717 722 723 724 727 733 738 742 744 746 752 761 771 779 784 785 784 779 773 769 768 766 767 777 794 804 804 799 798 806 813 820 833 838 837 838 836 830 822 819 822 819 819 805 773 763 766 761 761 763 760 758 757 757 758 758 759 759 762
642 646 651 655 658 662 665 669 676 681 686 691 697 706 710 710 705 696 694 695 688 683 684 689 692 698 706 710 712 716 719 719 719 721 727 734 740 743 743 746 751 758 767 777 782 781 779 775 769 773 774 764 767 787 801 802 800 797 800 806 814 827 833 830 831 828 822 821 823 824 820 815 797 769 759 760 753 752 756 760 760 758 758 756 755 757 758 760
640 645 649 653 656 660 665 671 675 679 685 690 697 704 704 699 689 685 692 693 684 680 682 684 688 697 703 704 706 711 716 719 716 718 725 731 738 743 746 749 750 751 761 775 779 773 771 771 767 768 770 764 760 768 777 786 795 792 790 795 802 809 813 814 817 819 820 823 825 824 816 802 783 766 760 758 756 754 754 757 760 758 758 757 757 758 757 757
639 644 648 652 656 660 664 669 673 678 684 689 696 699 695 686 680 682 686 687 688 686 682 683 687 696 704 703 703 705 710 715 714 717 724 726 730 735 739 746 748 749 757 768 773 770 764 761 759 758 759 759 760 762 766 780 797 796 789 794 799 797 798 809 816 814 817 823 824 820 807 788 769 756 753 754 752 753 752 753 757 755 755 758 757 753 752 752
638 643 646 649 653 657 661 665 670 677 682 687 692 692 685 676 671 674 675 678 685 683 681 688 689 693 702 703 705 707 710 713 711 714 721 722 723 726 729 734 737 740 745 751 758 764 762 760 759 759 760 759 759 763 766 774 787 794 795 796 795 791 792 806 819 819 818 817 811 807 796 784 772 753 742 744 743 742 745 749 751 750 751 755 751 747 748 748
636 639 643 646 649 654 659 663 668 674 681 685 685 680 674 670 667 666 665 668 676 676 679 688 688 688 697 701 705 706 707 715 713 708 715 719 718 720 725 729 729 730 732 737 746 750 754 764 764 759 763 763 759 763 767 767 773 787 794 789 788 796 797 801 813 820 823 815 804 801 796 789 785 763 741 743 744 737 740 747 749 747 748 749 744 743 744 744
633 637 640 642 646 651 657 663 667 672 678 681 679 672 667 667 668 667 664 662 669 673 676 680 680 680 686 693 698 700 704 713 715 708 710 715 712 711 719 726 727 728 726 729 739 742 745 763 771 763 763 768 763 767 775 775 774 779 780 775 781 798 804 804 808 811 815 811 799 804 806 794 784 765 743 742 743 737 739 743 742 740 741 741 738 737 739 741
632 638 639 639 643 650 654 661 666 670 675 674 671 670 667 666 670 672 668 661 665 674 675 673 673 676 679 681 684 691 698 705 712 712 707 706 707 707 710 716 721 726 726 726 733 737 738 753 770 768 764 769 770 773 778 780 780 779 777 777 778 784 791 795 797 797 801 803 796 803 806 785 767 758 748 743 740 736 739 739 736 735 736 738 737 735 735 737
629 636 636 634 639 646 653 660 663 665 668 664 661 666 667 666 671 675 673 666 666 673 673 668 670 673 675 677 677 684 692 696 705 711 704 699 703 706 705 707 715 721 725 726 728 734 737 745 764 773 771 771 772 770 766 767 775 778 779 783 780 779 785 787 788 790 791 795 796 799 790 765 751 752 746 740 736 734 737 738 736 735 735 737 737 735 735 736
625 631 631 631 635 643 650 656 658 659 661 659 659 665 667 665 669 674 675 672 669 673 674 670 670 669 670 674 676 681 689 695 700 704 701 697 699 703 699 697 705 715 723 731 730 730 734 740 757 773 772 765 760 757 753 754 762 767 771 777 775 777 785 787 789 790 787 788 792 795 782 754 743 747 742 736 735 733 736 738 737 736 735 734 734 735 738 738
623 625 626 627 631 639 645 650 654 657 657 655 656 662 664 665 669 672 674 674 673 677 680 677 673 669 669 672 672 677 686 692 697 698 696 694 692 691 688 687 694 704 713 723 724 722 726 737 755 768 766 761 759 760 760 757 757 763 767 771 773 775 779 782 785 785 787 789 789 796 788 754 737 744 743 739 738 736 740 742 739 737 737 736 734 736 740 739
619 622 624 624 626 634 640 645 651 655 655 652 653 659 663 664 667 670 672 674 676 677 677 677 676 673 674 674 670 675 684 687 692 692 689 691 688 683 683 685 690 699 706 712 719 721 725 735 753 765 766 764 762 760 760 759 761 767 768 769 770 769 767 769 773 776 782 783 782 793 786 751 737 746 746 744 744 742 744 746 743 739 738 739 738 737 738 739
616 621 623 623 624 630 635 638 640 648 654 654 655 661 666 665 666 667 668 671 675 676 673 676 680 677 678 680 672 671 678 683 688 690 687 688 686 682 685 687 690 696 699 701 707 712 717 725 741 759 767 767 765 766 769 771 770 765 761 763 763 761 765 770 774 779 778 769 774 787 774 746 741 747 745 745 745 739 738 745 747 741 735 735 736 736 737 737
614 620 622 622 623 626 632 635 633 639 648 649 652 659 662 666 669 668 667 670 674 674 672 676 681 678 679 680 675 673 677 680 684 687 686 687 686 684 685 688 692 693 692 694 697 702 711 716 724 739 750 752 750 748 745 747 752 752 750 754 753 754 762 764 768 779 774 761 768 773 757 742 741 739 738 740 739 734 732 736 741 740 736 735 734 732 732 732
607 613 620 624 624 624 633 638 635 636 641 642 649 656 657 664 672 670 669 672 675 675 676 679 681 677 677 677 676 680 683 684 685 685 686 688 687 685 683 685 690 691 692 698 700 706 715 715 714 717 716 713 714 710 703 711 731 744 746 748 748 750 754 755 763 770 761 757 762 750 739 745 744 735 735 736 734 734 732 730 731 733 734 733 732 731 730 730
601 605 612 615 619 625 633 639 637 635 635 635 644 652 655 662 668 670 671 672 674 676 678 684 682 675 675 676 677 683 686 686 686 683 683 687 687 685 684 684 689 691 694 698 699 704 714 714 712 710 703 699 705 705 703 712 727 733 737 742 746 750 754 759 762 753 747 760 761 738 736 751 746 736 736 734 731 733 732 729 728 729 730 730 731 730 728 727
599 603 606 603 608 617 624 631 634 633 633 636 643 649 654 659 664 668 672 673 675 675 674 681 683 676 675 672 672 684 690 687 688 686 682 684 687 689 688 686 687 688 693 699 697 698 707 710 708 707 705 706 710 708 708 716 722 725 730 736 741 748 754 758 755 743 745 758 751 734 740 749 742 736 732 729 730 730 728 730 731 730 729 729 729 727 723 723
599 602 606 604 605 611 616 623 628 631 634 639 646 649 649 655 663 668 671 672 675 675 671 674 679 678 676 672 669 680 686 679 682 690 688 684 686 691 695 695 692 689 691 697 697 696 702 705 705 708 711 713 714 711 711 718 723 727 732 735 740 746 747 747 742 734 741 748 737 734 742 738 732 732 726 722 728 730 730 731 730 728 727 725 726 724 722 724
592 592 597 603 610 614 617 623 626 631 637 637 643 649 646 650 660 666 670 671 670 672 670 671 677 679 677 674 670 675 679 671 673 684 687 684 684 687 692 693 693 694 693 695 697 695 698 701 702 708 716 718 719 717 715 717 722 727 732 736 742 748 748 745 739 735 745 746 734 737 743 730 723 725 722 721 726 728 730 729 726 725 725 725 725 723 722 723
586 585 585 593 610 618 618 623 625 630 638 638 641 648 647 650 657 661 669 673 668 667 668 669 677 681 679 678 673 671 675 673 674 679 682 682 685 690 692 691 693 698 699 698 696 693 696 702 704 711 720 721 720 721 719 719 722 728 733 737 742 745 742 737 729 727 734 734 730 739 740 723 717 723 725 723 723 722 724 727 726 724 723 723 723 722 722 722
584 586 583 586 606 619 619 623 625 627 636 638 639 644 646 650 654 655 663 674 672 668 668 668 674 680 681 681 675 669 671 673 675 680 681 682 687 693 696 697 699 701 700 699 696 693 695 701 704 711 716 715 716 720 721 725 732 734 728 725 726 726 723 721 717 717 719 720 723 729 722 712 717 726 727 725 723 720 718 719 722 723 721 722 723 722 722 721